• In Sweden
  • List of Countries
  • For 7 days
  • Water Temperature
  • Satellite Maps
  • Weather Map
  • Weather Widgets
  • user-avatar
    Login

    Hourly Weather Ambah

    Today, 21 October, Sunday

    Time Temperature Precipitation Wind Pressure Humidity
    00:00 +28°C° 0 mm 2 mps 745 mmHg 38%
    01:00 +27°C° 0 mm 2 mps 745 mmHg 40%
    02:00 +27°C° 0 mm 2 mps 745 mmHg 42%
    03:00 +26°C° 0 mm 2 mps 745 mmHg 43%
    04:00 +26°C° 0 mm 2 mps 745 mmHg 45%
    05:00 +25°C° 0 mm 2 mps 745 mmHg 46%
    06:00 +26°C° 0 mm 3 mps 746 mmHg 45%
    07:00 +27°C° 0 mm 3 mps 746 mmHg 43%
    08:00 +28°C° 0 mm 3 mps 747 mmHg 42%
    09:00 +30°C° 0 mm 3 mps 747 mmHg 38%
    10:00 +33°C° 0 mm 3 mps 746 mmHg 34%
    11:00 +35°C° 0 mm 3 mps 746 mmHg 29%
    12:00 +36°C° 0 mm 2 mps 746 mmHg 28%
    13:00 +36°C° 0 mm 2 mps 745 mmHg 26%
    14:00 +37°C° 0 mm 2 mps 745 mmHg 25%
    15:00 +36°C° 0 mm 2 mps 745 mmHg 27%
    16:00 +35°C° 0 mm 2 mps 744 mmHg 30%
    17:00 +32°C° 0 mm 2 mps 744 mmHg 32%
    18:00 +31°C° 0 mm 3 mps 745 mmHg 32%
    19:00 +30°C° 0 mm 3 mps 745 mmHg 32%
    20:00 +29°C° 0 mm 4 mps 745 mmHg 32%
    21:00 +28°C° 0 mm 3 mps 745 mmHg 32%
    22:00 +28°C° 0 mm 3 mps 746 mmHg 33%
    23:00 +27°C° 0 mm 3 mps 746 mmHg 33%

    Tomorrow, 22 October, Monday

    Time Temperature Precipitation Wind Pressure Humidity
    00:00 +27°C° 0 mm 2 mps 745 mmHg 33%
    01:00 +26°C° 0 mm 2 mps 745 mmHg 32%
    02:00 +26°C° 0 mm 2 mps 745 mmHg 32%
    03:00 +25°C° 0 mm 2 mps 745 mmHg 32%
    04:00 +25°C° 0 mm 1 mps 745 mmHg 31%
    05:00 +25°C° 0 mm 1 mps 745 mmHg 31%
    06:00 +26°C° 0 mm 1 mps 746 mmHg 30%
    07:00 +27°C° 0 mm 1 mps 746 mmHg 28%
    08:00 +28°C° 0 mm 1 mps 747 mmHg 27%
    09:00 +30°C° 0 mm 1 mps 747 mmHg 23%
    10:00 +32°C° 0 mm 2 mps 747 mmHg 20%
    11:00 +35°C° 0 mm 2 mps 747 mmHg 16%
    12:00 +35°C° 0 mm 3 mps 746 mmHg 15%
    13:00 +36°C° 0 mm 3 mps 745 mmHg 14%
    14:00 +36°C° 0 mm 4 mps 744 mmHg 13%
    15:00 +35°C° 0 mm 3 mps 744 mmHg 16%
    16:00 +32°C° 0 mm 2 mps 744 mmHg 19%
    17:00 +31°C° 0 mm 2 mps 744 mmHg 21%
    18:00 +30°C° 0 mm 1 mps 744 mmHg 22%
    19:00 +29°C° 0 mm 1 mps 745 mmHg 22%
    20:00 +28°C° 0 mm 1 mps 745 mmHg 22%
    21:00 +25°C° 0 mm 0 mps 745 mmHg 23%
    22:00 +25°C° 0 mm 0 mps 745 mmHg 24%
    23:00 +24°C° 0 mm 0 mps 745 mmHg 25%

    Day after tomorrow, 23 October, Tuesday

    Time Temperature Precipitation Wind Pressure Humidity
    00:00 +24°C° 0 mm 0 mps 745 mmHg 25%
    01:00 +23°C° 0 mm 0 mps 745 mmHg 26%
    02:00 +23°C° 0 mm 0 mps 744 mmHg 26%
    03:00 +23°C° 0 mm 0 mps 744 mmHg 27%
    04:00 +25°C° 0 mm 1 mps 744 mmHg 27%
    05:00 +24°C° 0 mm 1 mps 745 mmHg 27%
    06:00 +25°C° 0 mm 1 mps 745 mmHg 27%
    07:00 +27°C° 0 mm 1 mps 746 mmHg 27%
    08:00 +28°C° 0 mm 1 mps 746 mmHg 26%
    09:00 +30°C° 0 mm 2 mps 746 mmHg 23%
    10:00 +32°C° 0 mm 2 mps 746 mmHg 21%
    11:00 +35°C° 0 mm 2 mps 746 mmHg 18%
    12:00 +35°C° 0 mm 2 mps 745 mmHg 16%
    13:00 +36°C° 0 mm 2 mps 745 mmHg 15%
    14:00 +37°C° 0 mm 2 mps 744 mmHg 14%
    15:00 +35°C° 0 mm 2 mps 744 mmHg 16%
    16:00 +33°C° 0 mm 1 mps 744 mmHg 19%
    17:00 +31°C° 0 mm 1 mps 744 mmHg 21%
    18:00 +31°C° 0 mm 1 mps 744 mmHg 22%
    19:00 +30°C° 0 mm 1 mps 745 mmHg 22%
    20:00 +29°C° 0 mm 2 mps 745 mmHg 22%
    21:00 +28°C° 0 mm 2 mps 745 mmHg 23%
    22:00 +28°C° 0 mm 2 mps 745 mmHg 24%
    23:00 +27°C° 0 mm 2 mps 745 mmHg 26%

    24 October, Wednesday

    Time Temperature Precipitation Wind Pressure Humidity
    00:00 +27°C° 0 mm 2 mps 744 mmHg 27%
    01:00 +26°C° 0 mm 2 mps 744 mmHg 28%
    02:00 +26°C° 0 mm 2 mps 744 mmHg 29%
    03:00 +25°C° 0 mm 1 mps 744 mmHg 29%
    04:00 +25°C° 0 mm 1 mps 744 mmHg 30%
    05:00 +24°C° 0 mm 1 mps 744 mmHg 31%
    06:00 +25°C° 0 mm 2 mps 745 mmHg 30%
    07:00 +26°C° 0 mm 2 mps 745 mmHg 30%
    08:00 +27°C° 0 mm 2 mps 746 mmHg 30%
    09:00 +30°C° 0 mm 3 mps 746 mmHg 27%
    10:00 +33°C° 0 mm 3 mps 746 mmHg 25%
    11:00 +35°C° 0 mm 4 mps 745 mmHg 22%
    12:00 +35°C° 0 mm 4 mps 745 mmHg 22%
    13:00 +36°C° 0 mm 4 mps 744 mmHg 21%
    14:00 +36°C° 0 mm 4 mps 743 mmHg 21%
    15:00 +35°C° 0 mm 3 mps 743 mmHg 24%
    16:00 +34°C° 0 mm 2 mps 743 mmHg 27%
    17:00 +31°C° 0 mm 2 mps 743 mmHg 30%
    18:00 +30°C° 0 mm 2 mps 743 mmHg 31%
    19:00 +30°C° 0 mm 2 mps 744 mmHg 31%
    20:00 +29°C° 0 mm 2 mps 744 mmHg 32%
    21:00 +28°C° 0 mm 2 mps 744 mmHg 33%
    22:00 +28°C° 0 mm 1 mps 744 mmHg 34%
    23:00 +27°C° 0 mm 1 mps 745 mmHg 35%

    25 October, Thursday

    Time Temperature Precipitation Wind Pressure Humidity
    00:00 +26°C° 0 mm 2 mps 744 mmHg 37%
    01:00 +26°C° 0 mm 2 mps 744 mmHg 39%
    02:00 +25°C° 0 mm 2 mps 744 mmHg 40%
    03:00 +24°C° 0 mm 2 mps 744 mmHg 42%
    04:00 +24°C° 0 mm 2 mps 744 mmHg 44%
    05:00 +23°C° 0 mm 2 mps 745 mmHg 45%
    06:00 +24°C° 0 mm 2 mps 745 mmHg 43%
    07:00 +25°C° 0 mm 2 mps 746 mmHg 41%
    08:00 +26°C° 0 mm 2 mps 747 mmHg 39%
    09:00 +28°C° 0 mm 2 mps 747 mmHg 35%
    10:00 +30°C° 0 mm 2 mps 747 mmHg 31%
    11:00 +32°C° 0 mm 2 mps 747 mmHg 26%
    12:00 +34°C° 0 mm 2 mps 746 mmHg 24%
    13:00 +35°C° 0 mm 2 mps 746 mmHg 21%
    14:00 +36°C° 0 mm 2 mps 745 mmHg 18%
    15:00 +35°C° 0 mm 2 mps 745 mmHg 21%
    16:00 +32°C° 0 mm 1 mps 745 mmHg 23%
    17:00 +31°C° 0 mm 1 mps 745 mmHg 25%
    18:00 +30°C° 0 mm 1 mps 746 mmHg 26%
    19:00 +29°C° 0 mm 1 mps 746 mmHg 26%
    20:00 +28°C° 0 mm 1 mps 747 mmHg 27%
    21:00 +28°C° 0 mm 1 mps 747 mmHg 27%
    22:00 +27°C° 0 mm 1 mps 747 mmHg 28%
    23:00 +27°C° 0 mm 1 mps 747 mmHg 29%

    26 October, Friday

    Time Temperature Precipitation Wind Pressure Humidity
    00:00 +26°C° 0 mm 1 mps 747 mmHg 30%
    01:00 +26°C° 0 mm 1 mps 746 mmHg 30%
    02:00 +25°C° 0 mm 1 mps 746 mmHg 31%
    03:00 +25°C° 0 mm 1 mps 746 mmHg 32%
    04:00 +25°C° 0 mm 1 mps 747 mmHg 33%
    05:00 +24°C° 0 mm 1 mps 747 mmHg 34%
    06:00 +25°C° 0 mm 1 mps 748 mmHg 33%
    07:00 +26°C° 0 mm 1 mps 748 mmHg 32%
    08:00 +27°C° 0 mm 1 mps 749 mmHg 32%
    09:00 +29°C° 0 mm 1 mps 749 mmHg 29%
    10:00 +31°C° 0 mm 1 mps 749 mmHg 26%
    11:00 +33°C° 0 mm 1 mps 749 mmHg 23%
    12:00 +34°C° 0 mm 1 mps 748 mmHg 22%
    13:00 +34°C° 0 mm 1 mps 747 mmHg 21%
    14:00 +33°C° 0 mm 0 mps 747 mmHg 20%
    15:00 +32°C° 0 mm 0 mps 746 mmHg 23%
    16:00 +33°C° 0 mm 1 mps 746 mmHg 25%
    17:00 +32°C° 0 mm 1 mps 746 mmHg 28%
    18:00 +31°C° 0 mm 1 mps 747 mmHg 28%
    19:00 +30°C° 0 mm 1 mps 747 mmHg 29%
    20:00 +29°C° 0 mm 1 mps 747 mmHg 29%
    21:00 +29°C° 0 mm 1 mps 747 mmHg 30%
    22:00 +28°C° 0 mm 1 mps 747 mmHg 31%
    23:00 +28°C° 0 mm 1 mps 747 mmHg 31%
    Show more